Regional Weather Roundup
Issued by NWS

Home | Current Version | Previous Version | Text Only | Print | Product List | Glossary Off
Versions: 1 2 3 4 5 6 7 8 9 10 11 12 13 14 15 16 17 18 19 20 21 22 23 24 25 26 27 28 29 30 31 32 33 34 35 36 37 38 39 40 41 42 43 44 45 46 47 48 49 50

000
ASUS43 KMKX 012121
RWRWI

WISCONSIN REGIONAL WEATHER ROUNDUP
NATIONAL WEATHER SERVICE MILWAUKEE/SULLIVAN WI
400 PM CDT TUE SEP 01 2015

NOTE: "FAIR" INDICATES FEW OR NO CLOUDS BELOW 12,000 FEET WITH NO
SIGNIFICANT WEATHER AND/OR OBSTRUCTIONS TO VISIBILITY.

WIZ001-002-006>008-014>016-023>028-012200-
NORTHWEST WISCONSIN

CITY           SKY/WX    TMP DP  RH WIND       PRES   REMARKS
SUPERIOR ARPT  MOSUNNY   83  70  64 SW6       29.88R HX  87
ASHLAND        PTSUNNY   84  74  71 SW8       29.89S HX  91
HAYWARD        PTSUNNY   83  70  64 S10       29.92S HX  87
SIREN          PTSUNNY   85  69  59 S8        29.90F HX  89
CUMBERLAND     PTSUNNY   81  68  65 S7        29.93S HX  83
RICE LAKE      PTSUNNY   83  69  63 SW6       29.93F HX  86
CHETEK         PTSUNNY  N/A N/A N/A S5        29.92S
LADYSMITH      CLOUDY    82  69  65 S6        29.95S HX  85
EAU CLAIRE     PTSUNNY   86  72  62 SW7       29.90F HX  92
MENOMONIE      PTSUNNY   85  71  63 S6        29.91S HX  91
NEW RICHMOND   CLOUDY    82  70  65 SE5       29.91F HX  86
OSCEOLA        CLOUDY    83  71  66 S5        29.93S HX  87
$$

WIZ003>005-009-010-017-018-012200-
NORTH CENTRAL WISCONSIN

CITY           SKY/WX    TMP DP  RH WIND       PRES   REMARKS
MANITOWISH WTR CLOUDY    78  69  74 SW6       29.95F HX  80
ARBOR VITAE    PTSUNNY   80  68  67 W3        29.95F HX  82
WOODRUFF       PTSUNNY   80  68  67 W3        29.95F HX  82
RHINELANDER    PTSUNNY   82  66  58 SW8       29.97F HX  84
EAGLE RIVER    PTSUNNY   80  64  59 W7        29.96S HX  81
LAND O LAKES   PTSUNNY   80  66  62 W6        29.97S HX  82
PHILLIPS       PTSUNNY   81  70  69 SW6       29.94F HX  84
TOMAHAWK       MOSUNNY   80  67  66 CALM      29.96F HX  82
MEDFORD        MOSUNNY   82  71  71 S7        29.95F HX  86
MERRILL        PTSUNNY   83  71  65 SW7       29.95F HX  88
$$

WIZ029-030-035-036-043>047-012200-
CENTRAL WISCONSIN

CITY           SKY/WX    TMP DP  RH WIND       PRES   REMARKS
WAUSAU         CLOUDY    84  68  58 SW9       29.93F HX  87
MOSINEE        NOT AVBL
MARSHFIELD     MOSUNNY   87  68  52 SW8       29.94F HX  90
STEVENS POINT  PTSUNNY   85  67  54 SW10      29.95F HX  87
WAUPACA        MOSUNNY   89  67  48 S12       29.94S HX  92
WAUTOMA        PTSUNNY   89  69  51 S10       29.94F HX  93
WISC RAPIDS    MOSUNNY   87  69  54 SW10      29.95F HX  91
CAMP DOUGLAS   MOSUNNY   88  73  62 S10       29.93F HX  96
$$

WIZ011>013-019>022-031-037>040-048>050-012200-
NORTHEAST WISCONSIN

CITY           SKY/WX    TMP DP  RH WIND       PRES   REMARKS
ANTIGO         PTSUNNY   83  68  59 SW13      29.97S HX  86
SHAWANO        MOSUNNY   87  67  51 SW9       29.93F HX  90
OCONTO         MOSUNNY   87  70  56 SW13      29.91F HX  92
STURGEON BAY   MOSUNNY   81  72  74 S10       29.96S HX  84
GREEN BAY      MOSUNNY   88  72  58 SW10      29.93F HX  94
MANITOWOC      SUNNY     80  69  69 MISG      29.95F HX  83
APPLETON       PTSUNNY   86  64  48 SW12      29.94S HX  87
CLINTONVILLE   MOSUNNY   86  68  54 SW9       29.93S HX  89
OSHKOSH        MOSUNNY   86  69  56 SW12      29.94F HX  90
$$

WIZ032>034-041-042-053>061-012200-
SOUTHWEST WISCONSIN

CITY           SKY/WX    TMP DP  RH WIND       PRES   REMARKS
LA CROSSE      MOSUNNY   90  73  57 S12       29.90F HX  98
SPARTA         SUNNY     89  68  49 S5        29.93F HX  92
VIROQUA          N/A     86  72  62 S6        29.95F HX  92
BOSCOBEL       SUNNY     91  71  51 S9        29.93F HX  97
PRAIRIE DU CHI SUNNY     88  71  56 S3        29.92F HX  93
PLATTEVILLE    SUNNY     86  74  68 S15       29.97F HX  93
$$

WIZ056-057-062-063-064-067-068-012200-
SOUTH CENTRAL WISCONSIN

CITY           SKY/WX    TMP DP  RH WIND       PRES   REMARKS
REEDSBURG      SUNNY     88  74  63 SW9       29.94F HX  96
BARABOO/DELLS  SUNNY     89  68  50 SW9       29.95F HX  92
LONE ROCK      SUNNY     88  71  57 S12       29.94F HX  94
MINERAL POINT  SUNNY     88  72  58 S12       29.98S HX  94
MADISON        PTSUNNY   87  70  56 S10       29.96S HX  92
MIDDLETON      SUNNY     89  69  51 SW9       29.97S HX  94
WATERTOWN      MOSUNNY   88  70  56 S10       29.96F HX  93
MONROE         MOSUNNY   86  72  62 S13G20    29.99S HX  92
JANESVILLE     MOSUNNY   90  70  51 SW10      29.97F HX  95
$$

WIZ051-052-058>065-066-070>072-012200-
SOUTHEAST WISCONSIN

CITY           SKY/WX    TMP DP  RH WIND       PRES   REMARKS
MILWAUKEE      MOSUNNY   89  68  49 SW8       29.97S HX  93
WAUKESHA       MOSUNNY   86  68  54 SW7       29.99F HX  89
MILWAUKEE/TIMM MOSUNNY   88  64  45 SW10      29.98F HX  89
RACINE         MOSUNNY   84  70  62 SE9       29.99F HX  88
BURLINGTON     SUNNY     86  67  53 SW8       29.98F HX  89
KENOSHA        MOSUNNY   89  70  53 SW10      29.99S HX  94
FOND DU LAC    MOSUNNY   87  70  56 S10       29.95F HX  92
SHEBOYGAN      MOSUNNY   88  68  51 SW14      29.96S HX  91
WEST BEND      MOSUNNY   86  64  48 SW9       29.97S HX  87
JUNEAU         MOSUNNY   85  71  62 S12       29.98S HX  90
$$

LSZ147-162-012200-
LAKE SUPERIOR

STATION/POSITION TIME  TEMP    WIND        PRES    WAVE
                       AIR SEA DIR/SP/G            HT/PER
                 (UTC) (F)     (DEG/KT/KT) (MB)    (FT/S)
W MID LAKE BUOY  2050   60 56  240/  6/  6 1011.9R   0
DEVILS ISLAND    2100   72     260/  9/ 11 1012.0R
PORT WING        2040   74     300/  3/  4 1012.2F
SAXON HARBOR     2000   74      60/  4/  4 1011.9F
$$

LMZ867-665-643>646-012200-
LAKE MICHIGAN

STATION/POSITION TIME  TEMP    WIND        PRES    WAVE
                       AIR SEA DIR/SP/G            HT/PER
                 (UTC) (F)     (DEG/KT/KT) (MB)    (FT/S)
CHAMBERS ISLAND  2000   81     160/  5/ 10 1013.5F
S GREEN BAY BUOY 2000   76 67  220/  8/  8 1015.0
N MID LAKE BUOY  2050   67 65  210/ 12/ 14 1013.6F   2/ 4
NORTHPORT PIER   2000   72     150/  7/ 13 1013.9F
SISTER BAY       2019   83     170/ 13/ 15   N/A
ALGOMA LAKESHORE 2044          220/  8/  9   N/A
KEWAUNEE LAKESHO 2100   55     170/ 11/ 13 1013.1F
SHEBOYGAN LAKESH 2100   71     180/ 22/ 23 1014.3F
PORT WASHINGTON  2000   68     180/  5/ 10 1015.6
ATWATER BUOY     2100   63 50  160/ 12/ 14 1016.0F
MILWAUKEE LAKESH 1910   67     150/ 14/ 15   N/A
S MID LAKE BUOY  2050   74 70  180/ 12/ 14 1015.2F   1/ 3
KENOSHA   LAKESH 2100   67     160/ 12/ 14 1014.9S
$$

TC  - TEMPERATURE IN CELSIUS
VSB - VISIBILITY IN STATUTE MILES
WCI - WIND CHILL INDEX
HX  - HEAT INDEX




USA.gov is the U.S. government's official web portal to all federal, state and local government web resources and services.